THORAD AGENA D DEB, 4993

Orbit data source: Space-Track

THORAD AGENA D DEB, 4993 is space debris in SSO originally from a launch on Wed, 08 Apr 1970 UTC launched from the Air Force Western Test Range (AFWTR). Debris objects in space refer to the collection of defunct objects orbiting the Earth. Examples of debris include non-operational satellites, rocket bodies, and fragments generated from explosions, collisions, or faulty payload assembly.

Loading next visibility...
Identifier
4993, 1970-025HP
Orbit
SSO
Country
Flag of USUS
Related business
Manufacturer
Unknown
Mission
Spacecraft
Bus & Motor
Unknown
Mass
Unknown
Launch date (UTC)
1970-04-08 (56 years ago)
Launch vehicle
Unknown
Launch site
Air Force Western Test Range (AFWTR)
Object type
Payload
Rocket body
Debris
Shape & HBR
Unknown shape, 0.1 m
Radar Cross Section
Small (<0.1 m²)

Expand to show TLE details & history
Last TLE update: 3 hours ago

TLE from 3 hours ago
0 THORAD AGENA D DEB
1 04993U 70025HP  26125.32032949  .00001436  00000-0  94816-3 0  9992
2 04993 100.1975 268.7541 0083631 107.8619 253.1685 14.01936014832727
Epoch: 2026-05-05T07:41Z
TLE epoch observation values (Epoch: 2026-05-05T07:41:16.467Z)
Latitude
-0.00011°
Longitude
-69.76136°
Altitude
907.999 km
Speed
7.389 km/s
True Right ascension
17h 55m 00s
True Declination
0° 00' 00"
Sunlit
Object was in full shadow at epoch
Visualization orbit readout
Latitude
Unknown
Longitude
Unknown
Altitude
Unknown
Speed
Unknown
Apparent Right ascension
Unknown
Apparent Declination
Unknown
Sunlit
N/A
Visualization observer readout
Local Sidereal Time
18:49:06
Azimuth
Unknown
Elevation
Unknown
Doppler factor
Unknown
Orbital elements
Apogee altitude
945.095 km
Perigee altitude
823.621 km
Semi-major axis
7,262.495 km
Eccentricity
0.00836
Inclination
100.1975°
RAAN
268.7541°
Arg. of periapsis
107.8619°
True anomaly
252.25402°
Mean anomaly
253.1685°
Eccentric anomaly
252.71098°
Mean motion
3.50683 °/min
Orbital period
102.66 mins
BSTAR
0.00094816
Loading maneuver chart data...
Computing Atmospheric mass density...
Loading historical data...
Loading historical data...
Loading historical data...
Loading historical data...
Loading historical data...
Loading historical data...
Loading historical data...

Documentation

Showing up to 5 results
|